TimeCDT,TemperatureF,Dew PointF,Humidity,Sea Level PressureIn,VisibilityMPH,Wind Direction,Wind SpeedMPH,Gust SpeedMPH,PrecipitationIn,Events,Conditions,WindDirDegrees,DateUTC
12:15 AM,63.5,60.8,91,30.10,10.0,Calm,Calm,-,N/A,,Clear,0,2013-07-03 05:15:00
12:35 AM,62.2,60.4,94,30.10,10.0,Calm,Calm,-,N/A,,Clear,0,2013-07-03 05:35:00
12:55 AM,63.0,60.4,91,30.10,10.0,Calm,Calm,-,N/A,,Clear,0,2013-07-03 05:55:00
1:15 AM,61.9,59.2,91,30.10,10.0,Calm,Calm,-,N/A,,Clear,0,2013-07-03 06:15:00
1:35 AM,62.2,60.4,94,30.10,10.0,NNE,3.5,-,N/A,,Scattered Clouds,30,2013-07-03 06:35:00
1:55 AM,61.7,60.1,94,30.09,10.0,Calm,Calm,-,N/A,,Clear,0,2013-07-03 06:55:00
2:15 AM,62.6,60.6,93,30.09,10.0,Calm,Calm,-,N/A,,Scattered Clouds,0,2013-07-03 07:15:00
2:35 AM,62.6,60.1,91,30.09,10.0,Calm,Calm,-,N/A,,Clear,0,2013-07-03 07:35:00
2:55 AM,61.2,59.2,93,30.08,10.0,Calm,Calm,-,N/A,,Clear,0,2013-07-03 07:55:00
3:15 AM,60.1,59.0,96,30.08,7.0,Calm,Calm,-,N/A,,Clear,0,2013-07-03 08:15:00
3:35 AM,59.5,59.0,98,30.08,7.0,WSW,3.5,-,N/A,Thunderstorm,Clear,240,2013-07-03 08:35:00
3:55 AM,59.5,59.0,98,30.08,7.0,Calm,Calm,-,N/A,Thunderstorm,Clear,0,2013-07-03 08:55:00
4:15 AM,60.1,59.9,99,30.07,5.0,Calm,Calm,-,N/A,,Clear,0,2013-07-03 09:15:00
4:35 AM,58.3,58.1,99,30.07,5.0,Calm,Calm,-,N/A,,Clear,0,2013-07-03 09:35:00
4:55 AM,57.6,56.7,97,30.07,7.0,Calm,Calm,-,N/A,,Clear,0,2013-07-03 09:55:00
5:15 AM,57.4,56.5,97,30.07,10.0,Calm,Calm,-,N/A,,Clear,0,2013-07-03 10:15:00
5:35 AM,58.3,57.4,97,30.07,7.0,Calm,Calm,-,N/A,,Clear,0,2013-07-03 10:35:00
5:55 AM,58.8,57.2,94,30.08,10.0,Calm,Calm,-,N/A,,Clear,0,2013-07-03 10:55:00
6:35 AM,57.7,56.8,97,30.09,7.0,Calm,Calm,-,N/A,Thunderstorm,Clear,0,2013-07-03 11:35:00
6:55 AM,58.6,57.2,95,30.09,7.0,Calm,Calm,-,N/A,,Clear,0,2013-07-03 11:55:00
7:15 AM,58.8,58.3,98,30.09,7.0,Calm,Calm,-,N/A,,Clear,0,2013-07-03 12:15:00
7:35 AM,61.0,59.5,95,30.09,7.0,Calm,Calm,-,N/A,,Clear,0,2013-07-03 12:35:00
7:55 AM,62.6,60.3,92,30.09,5.0,Calm,Calm,-,N/A,,Clear,0,2013-07-03 12:55:00
8:15 AM,64.2,61.2,90,30.09,7.0,Calm,Calm,-,N/A,,Clear,0,2013-07-03 13:15:00
8:35 AM,66.9,60.3,79,30.10,7.0,Calm,Calm,-,N/A,,Clear,0,2013-07-03 13:35:00
8:55 AM,69.4,60.1,72,30.10,10.0,Calm,Calm,-,N/A,,Clear,0,2013-07-03 13:55:00
9:15 AM,71.6,59.0,64,30.10,10.0,Calm,Calm,-,N/A,,Clear,0,2013-07-03 14:15:00
9:35 AM,73.4,56.8,56,30.10,10.0,WSW,4.6,-,N/A,,Clear,250,2013-07-03 14:35:00
9:55 AM,73.9,55.6,53,30.09,4.0,West,3.5,-,N/A,,Haze,270,2013-07-03 14:55:00
10:15 AM,75.2,54.7,49,30.08,10.0,WSW,3.5,-,N/A,,Clear,250,2013-07-03 15:15:00
10:35 AM,76.1,55.2,48,30.08,10.0,West,3.5,-,N/A,,Clear,270,2013-07-03 15:35:00
10:55 AM,77.2,54.9,46,30.08,10.0,WSW,4.6,-,N/A,,Clear,240,2013-07-03 15:55:00
11:15 AM,79.0,52.0,39,30.07,10.0,WSW,3.5,-,N/A,,Clear,250,2013-07-03 16:15:00
11:35 AM,79.7,54.1,41,30.07,10.0,Calm,Calm,-,N/A,,Clear,0,2013-07-03 16:35:00
11:55 AM,80.1,53.8,40,30.07,10.0,Calm,Calm,-,N/A,,Clear,0,2013-07-03 16:55:00
12:15 PM,81.3,53.4,38,30.07,10.0,West,5.8,-,N/A,,Clear,260,2013-07-03 17:15:00
12:35 PM,81.5,52.9,37,30.06,10.0,Calm,Calm,-,N/A,,Clear,0,2013-07-03 17:35:00
12:55 PM,81.9,52.2,36,30.06,10.0,WSW,6.9,-,N/A,,Clear,250,2013-07-03 17:55:00
1:15 PM,82.0,52.2,35,30.05,10.0,South,5.8,-,N/A,,Scattered Clouds,190,2013-07-03 18:15:00
1:35 PM,82.8,52.2,35,30.04,10.0,SSE,3.5,-,N/A,,Scattered Clouds,150,2013-07-03 18:35:00
1:55 PM,83.5,52.2,34,30.03,10.0,SSW,5.8,-,N/A,,Scattered Clouds,210,2013-07-03 18:55:00
2:15 PM,83.8,51.3,32,30.03,10.0,SW,3.5,-,N/A,,Clear,230,2013-07-03 19:15:00
2:35 PM,84.4,51.3,32,30.02,10.0,SSW,8.1,-,N/A,,Clear,200,2013-07-03 19:35:00
2:55 PM,84.4,48.7,29,30.02,10.0,South,3.5,-,N/A,,Scattered Clouds,190,2013-07-03 19:55:00
3:15 PM,84.0,50.7,31,30.02,10.0,South,6.9,-,N/A,,Clear,180,2013-07-03 20:15:00
3:35 PM,84.4,51.8,32,30.01,10.0,South,5.8,-,N/A,,Clear,190,2013-07-03 20:35:00
3:55 PM,84.6,50.4,31,30.00,10.0,Calm,Calm,-,N/A,,Clear,0,2013-07-03 20:55:00
4:15 PM,85.1,51.3,31,30.00,10.0,SSW,4.6,-,N/A,,Scattered Clouds,210,2013-07-03 21:15:00
4:35 PM,84.9,51.3,31,29.99,10.0,Calm,Calm,-,N/A,Thunderstorm,Scattered Clouds,0,2013-07-03 21:35:00
4:55 PM,85.6,51.6,31,29.99,10.0,West,3.5,-,N/A,,Mostly Cloudy,280,2013-07-03 21:55:00
5:15 PM,86.2,51.4,30,29.98,10.0,SW,5.8,-,N/A,,Mostly Cloudy,230,2013-07-03 22:15:00
5:35 PM,85.3,49.5,29,29.98,10.0,Calm,Calm,-,N/A,,Scattered Clouds,0,2013-07-03 22:35:00
5:55 PM,84.7,51.6,32,29.97,10.0,SE,5.8,-,N/A,,Clear,140,2013-07-03 22:55:00
6:15 PM,85.1,52.2,32,29.97,10.0,SSE,8.1,-,N/A,,Mostly Cloudy,160,2013-07-03 23:15:00
6:35 PM,84.4,52.7,33,29.97,10.0,SE,9.2,-,N/A,,Mostly Cloudy,140,2013-07-03 23:35:00
6:55 PM,83.3,52.5,34,29.97,10.0,SE,8.1,-,N/A,,Clear,140,2013-07-03 23:55:00
7:15 PM,82.8,52.7,35,29.97,10.0,South,10.4,-,N/A,,Clear,170,2013-07-04 00:15:00
7:35 PM,81.5,53.6,38,29.97,10.0,South,8.1,-,N/A,,Clear,190,2013-07-04 00:35:00
7:55 PM,80.6,54.1,40,29.97,10.0,South,6.9,-,N/A,,Clear,190,2013-07-04 00:55:00
8:15 PM,79.2,54.3,42,29.97,10.0,South,5.8,-,N/A,,Clear,190,2013-07-04 01:15:00
8:35 PM,77.9,55.4,46,29.97,10.0,South,6.9,-,N/A,,Clear,180,2013-07-04 01:35:00
8:55 PM,77.0,54.9,46,29.98,10.0,SSE,6.9,-,N/A,,Clear,160,2013-07-04 01:55:00
9:15 PM,76.3,55.2,48,29.98,10.0,SSE,6.9,-,N/A,,Clear,150,2013-07-04 02:15:00
9:35 PM,75.4,55.8,50,29.98,10.0,SSE,4.6,-,N/A,,Clear,150,2013-07-04 02:35:00
9:55 PM,74.3,55.9,53,29.99,10.0,SSE,6.9,-,N/A,,Clear,150,2013-07-04 02:55:00
10:15 PM,73.9,55.9,53,29.99,10.0,ESE,3.5,-,N/A,,Clear,120,2013-07-04 03:15:00
10:35 PM,70.9,56.7,61,29.99,10.0,Calm,Calm,-,N/A,,Clear,0,2013-07-04 03:35:00
10:55 PM,70.7,55.8,59,29.99,10.0,SE,5.8,-,N/A,,Clear,140,2013-07-04 03:55:00
11:15 PM,70.9,55.0,57,29.99,10.0,SE,6.9,-,N/A,,Clear,140,2013-07-04 04:15:00
11:35 PM,70.2,54.9,58,30.00,10.0,SE,9.2,-,N/A,,Clear,140,2013-07-04 04:35:00
11:55 PM,69.8,54.9,59,30.00,10.0,SSE,11.5,-,N/A,,Clear,160,2013-07-04 04:55:00